Time,TemperatureF,DewpointF,PressureIn,WindDirection,WindDirectionDegrees,WindSpeedMPH,WindSpeedGustMPH,Humidity,HourlyPrecipIn,Conditions,Clouds,dailyrainin,SoftwareType,DateUTC
2013-03-13 00:00:00,53.1,40.5,30.23,WNW,302,0.0,0.0,62,0.00,,,0.00,meteohub,2013-03-13 05:00:00,
2013-03-13 00:05:00,53.1,41.2,30.23,WNW,302,0.0,0.0,64,0.00,,,0.00,meteohub,2013-03-13 05:05:00,
2013-03-13 00:10:00,52.9,41.4,30.23,WNW,302,0.0,0.0,65,0.00,,,0.00,meteohub,2013-03-13 05:10:00,
2013-03-13 00:15:00,52.3,41.4,30.23,WNW,302,0.0,0.0,66,0.00,,,0.00,meteohub,2013-03-13 05:15:00,
2013-03-13 00:20:00,52.3,41.7,30.23,WNW,302,0.0,0.0,67,0.00,,,0.00,meteohub,2013-03-13 05:20:00,
2013-03-13 00:25:00,52.3,41.4,30.23,WNW,302,2.0,0.0,66,0.00,,,0.00,meteohub,2013-03-13 05:25:00,
2013-03-13 00:30:00,52.5,41.2,30.23,WNW,302,3.0,3.0,65,0.00,,,0.00,meteohub,2013-03-13 05:30:00,
2013-03-13 00:35:00,52.5,41.2,30.23,WNW,302,1.0,3.0,65,0.00,,,0.00,meteohub,2013-03-13 05:35:00,
2013-03-13 00:40:00,52.5,41.2,30.24,WNW,302,0.0,3.0,65,0.00,,,0.00,meteohub,2013-03-13 05:40:00,
2013-03-13 00:45:00,52.5,41.5,30.24,WNW,302,0.0,3.0,66,0.00,,,0.00,meteohub,2013-03-13 05:45:00,
2013-03-13 00:50:00,52.3,41.7,30.24,WNW,302,0.0,2.0,67,0.00,,,0.00,meteohub,2013-03-13 05:50:00,
2013-03-13 00:55:00,52.0,41.7,30.24,WNW,302,0.0,2.0,68,0.00,,,0.00,meteohub,2013-03-13 05:55:00,
2013-03-13 01:00:00,51.6,41.7,30.24,WNW,302,0.0,0.0,69,0.00,,,0.00,meteohub,2013-03-13 06:00:00,
2013-03-13 01:05:00,51.4,41.5,30.24,WNW,302,1.0,0.0,69,0.00,,,0.00,meteohub,2013-03-13 06:05:00,
2013-03-13 01:11:00,51.6,41.0,30.24,WNW,302,2.0,2.0,67,0.00,,,0.00,meteohub,2013-03-13 06:11:00,
2013-03-13 01:16:00,52.2,40.8,30.24,WNW,302,0.0,4.0,65,0.00,,,0.00,meteohub,2013-03-13 06:16:00,
2013-03-13 01:21:00,52.2,40.8,30.24,WNW,302,0.0,4.0,65,0.00,,,0.00,meteohub,2013-03-13 06:21:00,
2013-03-13 01:26:00,52.2,40.8,30.24,WNW,302,2.0,4.0,65,0.00,,,0.00,meteohub,2013-03-13 06:26:00,
2013-03-13 01:31:00,52.3,40.1,30.25,WNW,302,3.0,3.0,63,0.00,,,0.00,meteohub,2013-03-13 06:31:00,
2013-03-13 01:36:00,52.5,40.3,30.25,WNW,302,1.0,3.0,63,0.00,,,0.00,meteohub,2013-03-13 06:36:00,
2013-03-13 01:42:00,52.3,40.1,30.25,WNW,302,0.0,3.0,63,0.00,,,0.00,meteohub,2013-03-13 06:42:00,
2013-03-13 01:47:00,52.3,39.7,30.25,WNW,302,0.0,3.0,62,0.00,,,0.00,meteohub,2013-03-13 06:47:00,
2013-03-13 01:52:00,52.2,39.6,30.25,WNW,302,2.0,2.0,62,0.00,,,0.00,meteohub,2013-03-13 06:52:00,
2013-03-13 01:57:00,52.2,39.9,30.25,WNW,302,1.0,3.0,63,0.00,,,0.00,meteohub,2013-03-13 06:57:00,
2013-03-13 02:02:00,52.0,40.1,30.25,WNW,302,1.0,3.0,64,0.00,,,0.00,meteohub,2013-03-13 07:02:00,
2013-03-13 02:07:00,51.8,40.1,30.25,WNW,302,0.0,4.0,64,0.00,,,0.00,meteohub,2013-03-13 07:07:00,
2013-03-13 02:12:00,51.8,39.2,30.24,WNW,302,0.0,4.0,62,0.00,,,0.00,meteohub,2013-03-13 07:12:00,
2013-03-13 02:17:00,52.0,39.7,30.25,WNW,302,0.0,3.0,63,0.00,,,0.00,meteohub,2013-03-13 07:17:00,
2013-03-13 02:22:00,51.8,39.2,30.25,WNW,302,0.0,3.0,62,0.00,,,0.00,meteohub,2013-03-13 07:22:00,
2013-03-13 02:27:00,51.6,39.4,30.25,WNW,302,0.0,1.0,63,0.00,,,0.00,meteohub,2013-03-13 07:27:00,
2013-03-13 02:32:00,51.4,39.2,30.25,WNW,302,0.0,1.0,63,0.00,,,0.00,meteohub,2013-03-13 07:32:00,
2013-03-13 02:37:00,51.3,39.9,30.25,WNW,302,0.0,1.0,65,0.00,,,0.00,meteohub,2013-03-13 07:37:00,
2013-03-13 02:42:00,50.5,39.6,30.25,WNW,302,0.0,2.0,66,0.00,,,0.00,meteohub,2013-03-13 07:42:00,
2013-03-13 02:47:00,50.4,39.7,30.25,WNW,302,0.0,3.0,67,0.00,,,0.00,meteohub,2013-03-13 07:47:00,
2013-03-13 02:52:00,50.2,40.5,30.25,WNW,302,0.0,3.0,69,0.00,,,0.00,meteohub,2013-03-13 07:52:00,
2013-03-13 02:57:00,49.6,40.6,30.25,WNW,302,0.0,2.0,71,0.00,,,0.00,meteohub,2013-03-13 07:57:00,
2013-03-13 03:02:00,49.5,40.5,30.25,WNW,302,0.0,2.0,71,0.00,,,0.00,meteohub,2013-03-13 08:02:00,
2013-03-13 03:08:00,49.5,40.1,30.25,WNW,302,0.0,1.0,70,0.00,,,0.00,meteohub,2013-03-13 08:08:00,
2013-03-13 03:13:00,49.5,40.1,30.25,WNW,302,0.0,1.0,70,0.00,,,0.00,meteohub,2013-03-13 08:13:00,
2013-03-13 03:18:00,49.5,40.5,30.25,WNW,302,0.0,1.0,71,0.00,,,0.00,meteohub,2013-03-13 08:18:00,
2013-03-13 03:23:00,49.3,40.3,30.25,WNW,302,0.0,1.0,71,0.00,,,0.00,meteohub,2013-03-13 08:23:00,
2013-03-13 03:28:00,48.9,39.9,30.25,WNW,302,0.0,2.0,71,0.00,,,0.00,meteohub,2013-03-13 08:28:00,
2013-03-13 03:33:00,48.9,39.9,30.25,WNW,302,0.0,2.0,71,0.00,,,0.00,meteohub,2013-03-13 08:33:00,
2013-03-13 03:38:00,49.1,40.1,30.25,WNW,302,0.0,2.0,71,0.00,,,0.00,meteohub,2013-03-13 08:38:00,
2013-03-13 03:43:00,49.3,40.3,30.25,WNW,302,0.0,0.0,71,0.00,,,0.00,meteohub,2013-03-13 08:43:00,
2013-03-13 03:48:00,49.3,40.6,30.25,WNW,302,0.0,0.0,72,0.00,,,0.00,meteohub,2013-03-13 08:48:00,
2013-03-13 03:53:00,49.3,39.9,30.25,WNW,302,0.0,1.0,70,0.00,,,0.00,meteohub,2013-03-13 08:53:00,
2013-03-13 03:58:00,49.3,39.6,30.25,WNW,302,0.0,1.0,69,0.00,,,0.00,meteohub,2013-03-13 08:58:00,
2013-03-13 04:03:00,49.6,39.6,30.25,WNW,302,2.0,2.0,68,0.00,,,0.00,meteohub,2013-03-13 09:03:00,
2013-03-13 04:08:00,49.8,39.4,30.25,WNW,302,2.0,2.0,67,0.00,,,0.00,meteohub,2013-03-13 09:08:00,
2013-03-13 04:13:00,50.2,39.6,30.25,WNW,302,1.0,3.0,67,0.00,,,0.00,meteohub,2013-03-13 09:13:00,
2013-03-13 04:18:00,50.2,39.6,30.26,WNW,302,0.0,3.0,67,0.00,,,0.00,meteohub,2013-03-13 09:18:00,
2013-03-13 04:23:00,50.0,39.0,30.26,WNW,302,0.0,3.0,66,0.00,,,0.00,meteohub,2013-03-13 09:23:00,
2013-03-13 04:28:00,49.8,39.4,30.26,WNW,302,0.0,2.0,67,0.00,,,0.00,meteohub,2013-03-13 09:28:00,
2013-03-13 04:33:00,49.8,39.7,30.26,WNW,302,1.0,2.0,68,0.00,,,0.00,meteohub,2013-03-13 09:33:00,
2013-03-13 04:39:00,49.6,39.9,30.26,WNW,302,0.0,2.0,69,0.00,,,0.00,meteohub,2013-03-13 09:39:00,
2013-03-13 04:44:00,49.3,39.9,30.26,WNW,302,0.0,2.0,70,0.00,,,0.00,meteohub,2013-03-13 09:44:00,
2013-03-13 04:49:00,48.9,39.9,30.26,WNW,302,0.0,2.0,71,0.00,,,0.00,meteohub,2013-03-13 09:49:00,
2013-03-13 04:54:00,48.4,40.1,30.26,WNW,302,0.0,0.0,73,0.00,,,0.00,meteohub,2013-03-13 09:54:00,
2013-03-13 04:59:00,48.0,40.1,30.26,WNW,302,0.0,0.0,74,0.00,,,0.00,meteohub,2013-03-13 09:59:00,
2013-03-13 05:04:00,47.7,40.1,30.27,WNW,302,0.0,0.0,75,0.00,,,0.00,meteohub,2013-03-13 10:04:00,
2013-03-13 05:09:00,47.5,40.6,30.27,WNW,302,0.0,0.0,77,0.00,,,0.00,meteohub,2013-03-13 10:09:00,
2013-03-13 05:14:00,46.8,40.3,30.27,WNW,302,0.0,0.0,78,0.00,,,0.00,meteohub,2013-03-13 10:14:00,
2013-03-13 05:19:00,46.6,40.5,30.27,WNW,302,0.0,0.0,79,0.00,,,0.00,meteohub,2013-03-13 10:19:00,
2013-03-13 05:24:00,46.2,39.7,30.27,WNW,302,0.0,0.0,78,0.00,,,0.00,meteohub,2013-03-13 10:24:00,
2013-03-13 05:29:00,46.6,40.5,30.27,WNW,302,0.0,0.0,79,0.00,,,0.00,meteohub,2013-03-13 10:29:00,
2013-03-13 05:34:00,46.8,39.9,30.27,WNW,302,0.0,0.0,77,0.00,,,0.00,meteohub,2013-03-13 10:34:00,
2013-03-13 05:39:00,46.9,40.1,30.28,WNW,302,0.0,0.0,77,0.00,,,0.00,meteohub,2013-03-13 10:39:00,
2013-03-13 05:44:00,46.9,40.1,30.28,WNW,302,0.0,0.0,77,0.00,,,0.00,meteohub,2013-03-13 10:44:00,
2013-03-13 05:49:00,46.9,40.1,30.28,WNW,302,0.0,0.0,77,0.00,,,0.00,meteohub,2013-03-13 10:49:00,
2013-03-13 05:54:00,46.9,40.1,30.28,WNW,302,0.0,0.0,77,0.00,,,0.00,meteohub,2013-03-13 10:54:00,
2013-03-13 05:59:00,46.9,40.1,30.28,WNW,302,0.0,0.0,77,0.00,,,0.00,meteohub,2013-03-13 10:59:00,
2013-03-13 06:04:00,47.1,40.3,30.29,WNW,302,0.0,0.0,77,0.00,,,0.00,meteohub,2013-03-13 11:04:00,
2013-03-13 06:09:00,47.1,39.9,30.29,WNW,302,0.0,0.0,76,0.00,,,0.00,meteohub,2013-03-13 11:09:00,
2013-03-13 06:14:00,47.1,40.3,30.29,WNW,302,0.0,0.0,77,0.00,,,0.00,meteohub,2013-03-13 11:14:00,
2013-03-13 06:19:00,46.9,40.1,30.29,WNW,302,0.0,0.0,77,0.00,,,0.00,meteohub,2013-03-13 11:19:00,
2013-03-13 06:24:00,46.8,39.9,30.30,WNW,302,0.0,0.0,77,0.00,,,0.00,meteohub,2013-03-13 11:24:00,
2013-03-13 06:29:00,46.6,40.1,30.30,WNW,302,0.0,0.0,78,0.00,,,0.00,meteohub,2013-03-13 11:29:00,
2013-03-13 06:34:00,46.6,40.1,30.31,WNW,302,0.0,0.0,78,0.00,,,0.00,meteohub,2013-03-13 11:34:00,
2013-03-13 06:39:00,46.2,39.7,30.31,WNW,302,0.0,0.0,78,0.00,,,0.00,meteohub,2013-03-13 11:39:00,
2013-03-13 06:44:00,46.2,39.7,30.31,WNW,302,0.0,0.0,78,0.00,,,0.00,meteohub,2013-03-13 11:44:00,
2013-03-13 06:49:00,46.0,39.9,30.31,WNW,302,0.0,0.0,79,0.00,,,0.00,meteohub,2013-03-13 11:49:00,
2013-03-13 06:54:00,46.0,39.9,30.31,WNW,302,0.0,0.0,79,0.00,,,0.00,meteohub,2013-03-13 11:54:00,
2013-03-13 06:59:00,45.9,39.7,30.32,WNW,302,0.0,0.0,79,0.00,,,0.00,meteohub,2013-03-13 11:59:00,
2013-03-13 07:04:00,45.9,39.7,30.32,WNW,302,0.0,0.0,79,0.00,,,0.00,meteohub,2013-03-13 12:04:00,
2013-03-13 07:09:00,45.7,39.9,30.32,WNW,302,0.0,0.0,80,0.00,,,0.00,meteohub,2013-03-13 12:09:00,
2013-03-13 07:14:00,45.7,39.9,30.32,WNW,302,0.0,0.0,80,0.00,,,0.00,meteohub,2013-03-13 12:14:00,
2013-03-13 07:19:00,45.5,39.7,30.32,WNW,302,0.0,0.0,80,0.00,,,0.00,meteohub,2013-03-13 12:19:00,
2013-03-13 07:24:00,45.7,40.1,30.33,WNW,302,0.0,0.0,81,0.00,,,0.00,meteohub,2013-03-13 12:24:00,
2013-03-13 07:29:00,45.9,40.1,30.33,WNW,302,0.0,1.0,80,0.00,,,0.00,meteohub,2013-03-13 12:29:00,
2013-03-13 07:34:00,46.0,40.3,30.33,WNW,302,0.0,1.0,80,0.00,,,0.00,meteohub,2013-03-13 12:34:00,
2013-03-13 07:39:00,46.0,40.3,30.33,WNW,302,0.0,1.0,80,0.00,,,0.00,meteohub,2013-03-13 12:39:00,
2013-03-13 07:44:00,46.0,40.3,30.34,WNW,302,2.0,2.0,80,0.00,,,0.00,meteohub,2013-03-13 12:44:00,
2013-03-13 07:49:00,46.4,40.6,30.34,WNW,302,2.0,3.0,80,0.00,,,0.00,meteohub,2013-03-13 12:49:00,
2013-03-13 07:54:00,46.6,40.5,30.34,WNW,302,2.0,3.0,79,0.00,,,0.00,meteohub,2013-03-13 12:54:00,
2013-03-13 07:59:00,46.9,40.5,30.35,WNW,302,3.0,4.0,78,0.00,,,0.00,meteohub,2013-03-13 12:59:00,
2013-03-13 08:04:00,47.5,40.6,30.35,WNW,302,4.0,4.0,77,0.00,,,0.00,meteohub,2013-03-13 13:04:00,
2013-03-13 08:09:00,47.8,40.6,30.35,NW,306,4.0,6.0,76,0.00,,,0.00,meteohub,2013-03-13 13:09:00,
2013-03-13 08:14:00,48.4,40.8,30.35,NW,307,3.0,7.0,75,0.00,,,0.00,meteohub,2013-03-13 13:14:00,
2013-03-13 08:19:00,49.1,41.2,30.36,NW,316,5.0,7.0,74,0.00,,,0.00,meteohub,2013-03-13 13:19:00,
2013-03-13 08:24:00,49.6,40.6,30.36,NNW,332,5.0,7.0,71,0.00,,,0.00,meteohub,2013-03-13 13:24:00,
2013-03-13 08:29:00,50.4,40.6,30.36,NNW,340,5.0,8.0,69,0.00,,,0.00,meteohub,2013-03-13 13:29:00,
2013-03-13 08:34:00,50.7,40.5,30.36,NNW,343,7.0,8.0,68,0.00,,,0.00,meteohub,2013-03-13 13:34:00,
2013-03-13 08:39:00,51.3,39.9,30.36,NNW,347,6.0,11.0,65,0.00,,,0.00,meteohub,2013-03-13 13:39:00,
2013-03-13 08:45:00,52.0,40.6,30.37,North,350,1.0,12.0,65,0.00,,,0.00,meteohub,2013-03-13 13:45:00,
2013-03-13 08:50:00,52.3,39.7,30.37,NNW,344,7.0,12.0,62,0.00,,,0.00,meteohub,2013-03-13 13:50:00,
2013-03-13 08:54:00,52.9,39.7,30.37,North,355,5.0,12.0,61,0.00,,,0.00,meteohub,2013-03-13 13:54:00,
2013-03-13 09:00:00,53.2,39.7,30.38,North,351,4.0,13.0,60,0.00,,,0.00,meteohub,2013-03-13 14:00:00,
2013-03-13 09:05:00,53.6,39.6,30.38,North,355,6.0,13.0,59,0.00,,,0.00,meteohub,2013-03-13 14:05:00,
2013-03-13 09:10:00,54.0,39.0,30.38,NE,36,4.0,11.0,57,0.00,,,0.00,meteohub,2013-03-13 14:10:00,
2013-03-13 09:15:00,54.1,38.8,30.38,North,349,4.0,11.0,56,0.00,,,0.00,meteohub,2013-03-13 14:15:00,
2013-03-13 09:20:00,54.7,38.8,30.38,North,0,2.0,11.0,55,0.00,,,0.00,meteohub,2013-03-13 14:20:00,
2013-03-13 09:25:00,54.9,39.0,30.39,NE,40,3.0,11.0,55,0.00,,,0.00,meteohub,2013-03-13 14:25:00,
2013-03-13 09:30:00,55.4,39.0,30.39,North,355,1.0,11.0,54,0.00,,,0.00,meteohub,2013-03-13 14:30:00,
2013-03-13 09:35:00,55.6,39.2,30.39,NE,40,6.0,12.0,54,0.00,,,0.00,meteohub,2013-03-13 14:35:00,
2013-03-13 09:40:00,55.8,38.8,30.39,NE,56,6.0,12.0,53,0.00,,,0.00,meteohub,2013-03-13 14:40:00,
2013-03-13 09:45:00,55.8,38.5,30.39,NNE,32,6.0,12.0,52,0.00,,,0.00,meteohub,2013-03-13 14:45:00,
2013-03-13 09:50:00,55.9,39.0,30.39,NE,37,8.0,13.0,53,0.00,,,0.00,meteohub,2013-03-13 14:50:00,
2013-03-13 09:55:00,56.1,38.3,30.40,NE,34,2.0,13.0,51,0.00,,,0.00,meteohub,2013-03-13 14:55:00,
2013-03-13 10:00:00,56.8,38.8,30.40,North,355,4.0,11.0,51,0.00,,,0.00,meteohub,2013-03-13 15:00:00,
2013-03-13 10:05:00,57.0,38.5,30.40,NE,38,10.0,10.0,50,0.00,,,0.00,meteohub,2013-03-13 15:05:00,
2013-03-13 10:10:00,57.4,39.4,30.40,North,5,0.0,11.0,51,0.00,,,0.00,meteohub,2013-03-13 15:10:00,
2013-03-13 10:15:00,58.3,39.2,30.40,North,5,4.0,11.0,49,0.00,,,0.00,meteohub,2013-03-13 15:15:00,
2013-03-13 10:20:00,58.1,37.9,30.40,ENE,58,5.0,11.0,47,0.00,,,0.00,meteohub,2013-03-13 15:20:00,
2013-03-13 10:25:00,58.3,38.7,30.40,NW,320,7.0,13.0,48,0.00,,,0.00,meteohub,2013-03-13 15:25:00,
2013-03-13 10:30:00,58.3,38.1,30.40,North,5,8.0,13.0,47,0.00,,,0.00,meteohub,2013-03-13 15:30:00,
2013-03-13 10:35:00,58.3,37.6,30.40,North,5,7.0,14.0,46,0.00,,,0.00,meteohub,2013-03-13 15:35:00,
2013-03-13 10:40:00,58.6,38.5,30.40,North,10,8.0,14.0,47,0.00,,,0.00,meteohub,2013-03-13 15:40:00,
2013-03-13 10:45:00,58.8,37.6,30.41,North,9,3.0,14.0,45,0.00,,,0.00,meteohub,2013-03-13 15:45:00,
2013-03-13 10:50:00,59.0,36.5,30.41,North,11,8.0,13.0,43,0.00,,,0.00,meteohub,2013-03-13 15:50:00,
2013-03-13 10:55:00,59.2,36.1,30.41,NNW,329,6.0,13.0,42,0.00,,,0.00,meteohub,2013-03-13 15:55:00,
2013-03-13 11:00:00,59.2,34.9,30.41,NNW,342,9.0,13.0,40,0.00,,,0.00,meteohub,2013-03-13 16:00:00,
2013-03-13 11:05:00,59.5,35.2,30.41,NNE,21,7.0,15.0,40,0.00,,,0.00,meteohub,2013-03-13 16:05:00,
2013-03-13 11:10:00,59.7,34.7,30.42,NNW,331,10.0,15.0,39,0.00,,,0.00,meteohub,2013-03-13 16:10:00,
2013-03-13 11:15:00,59.4,35.1,30.41,NNW,345,4.0,15.0,40,0.00,,,0.00,meteohub,2013-03-13 16:15:00,
2013-03-13 11:20:00,59.7,34.7,30.41,North,0,10.0,15.0,39,0.00,,,0.00,meteohub,2013-03-13 16:20:00,
2013-03-13 11:25:00,59.5,34.0,30.41,North,355,6.0,16.0,38,0.00,,,0.00,meteohub,2013-03-13 16:25:00,
2013-03-13 11:30:00,60.3,35.8,30.41,NNW,333,6.0,16.0,40,0.00,,,0.00,meteohub,2013-03-13 16:30:00,
2013-03-13 11:35:00,60.3,33.8,30.41,NNW,343,8.0,16.0,37,0.00,,,0.00,meteohub,2013-03-13 16:35:00,
2013-03-13 11:40:00,60.1,34.3,30.41,NW,309,13.0,13.0,38,0.00,,,0.00,meteohub,2013-03-13 16:40:00,
2013-03-13 11:45:00,60.4,33.4,30.41,NE,38,7.0,17.0,36,0.00,,,0.00,meteohub,2013-03-13 16:45:00,
2013-03-13 11:50:00,60.6,32.9,30.41,NNW,336,10.0,17.0,35,0.00,,,0.00,meteohub,2013-03-13 16:50:00,
2013-03-13 11:55:00,60.8,32.9,30.41,NNE,19,3.0,17.0,35,0.00,,,0.00,meteohub,2013-03-13 16:55:00,
2013-03-13 12:00:00,61.2,31.8,30.40,NW,326,6.0,16.0,33,0.00,,,0.00,meteohub,2013-03-13 17:00:00,
2013-03-13 12:06:00,61.5,32.9,30.40,NNW,335,15.0,16.0,34,0.00,,,0.00,meteohub,2013-03-13 17:06:00,
2013-03-13 12:11:00,62.1,31.8,30.40,North,0,11.0,15.0,32,0.00,,,0.00,meteohub,2013-03-13 17:11:00,
2013-03-13 12:16:00,61.9,32.5,30.40,NNW,347,11.0,17.0,33,0.00,,,0.00,meteohub,2013-03-13 17:16:00,
2013-03-13 12:21:00,62.1,31.8,30.40,North,355,5.0,17.0,32,0.00,,,0.00,meteohub,2013-03-13 17:21:00,
2013-03-13 12:26:00,62.2,32.7,30.40,NNW,348,2.0,12.0,33,0.00,,,0.00,meteohub,2013-03-13 17:26:00,
2013-03-13 12:31:00,62.4,32.9,30.40,NW,319,12.0,12.0,33,0.00,,,0.00,meteohub,2013-03-13 17:31:00,
2013-03-13 12:36:00,62.4,32.2,30.39,NNW,339,4.0,12.0,32,0.00,,,0.00,meteohub,2013-03-13 17:36:00,
2013-03-13 12:41:00,62.4,32.9,30.39,NNW,328,7.0,14.0,33,0.00,,,0.00,meteohub,2013-03-13 17:41:00,
2013-03-13 12:46:00,62.2,32.0,30.39,WNW,300,6.0,14.0,32,0.00,,,0.00,meteohub,2013-03-13 17:46:00,
2013-03-13 12:51:00,62.8,31.6,30.38,NNE,21,6.0,14.0,31,0.00,,,0.00,meteohub,2013-03-13 17:51:00,
2013-03-13 12:56:00,63.0,33.4,30.38,NW,315,10.0,14.0,33,0.00,,,0.00,meteohub,2013-03-13 17:56:00,
2013-03-13 13:01:00,63.0,31.1,30.38,NNW,332,8.0,15.0,30,0.00,,,0.00,meteohub,2013-03-13 18:01:00,
2013-03-13 13:06:00,63.0,31.8,30.38,WNW,301,12.0,15.0,31,0.00,,,0.00,meteohub,2013-03-13 18:06:00,
2013-03-13 13:11:00,63.0,31.8,30.38,North,349,8.0,17.0,31,0.00,,,0.00,meteohub,2013-03-13 18:11:00,
2013-03-13 13:16:00,63.1,32.7,30.37,NE,38,7.0,17.0,32,0.00,,,0.00,meteohub,2013-03-13 18:16:00,
2013-03-13 13:21:00,63.0,31.1,30.37,NW,307,12.0,17.0,30,0.00,,,0.00,meteohub,2013-03-13 18:21:00,
2013-03-13 13:26:00,63.3,30.6,30.37,WNW,298,11.0,22.0,29,0.00,,,0.00,meteohub,2013-03-13 18:26:00,
2013-03-13 13:31:00,63.7,30.7,30.37,NNW,342,12.0,22.0,29,0.00,,,0.00,meteohub,2013-03-13 18:31:00,
2013-03-13 13:36:00,63.1,29.5,30.36,NW,312,8.0,22.0,28,0.00,,,0.00,meteohub,2013-03-13 18:36:00,
2013-03-13 13:41:00,63.7,30.7,30.36,North,0,3.0,17.0,29,0.00,,,0.00,meteohub,2013-03-13 18:41:00,
2013-03-13 13:47:00,63.5,29.8,30.36,NW,308,11.0,17.0,28,0.00,,,0.00,meteohub,2013-03-13 18:47:00,
2013-03-13 13:52:00,63.7,30.0,30.36,North,355,11.0,17.0,28,0.00,,,0.00,meteohub,2013-03-13 18:52:00,
2013-03-13 13:57:00,63.7,29.1,30.36,NW,323,11.0,18.0,27,0.00,,,0.00,meteohub,2013-03-13 18:57:00,
2013-03-13 14:02:00,63.7,30.0,30.35,NW,315,9.0,18.0,28,0.00,,,0.00,meteohub,2013-03-13 19:02:00,
2013-03-13 14:07:00,63.5,29.8,30.35,NNW,331,12.0,18.0,28,0.00,,,0.00,meteohub,2013-03-13 19:07:00,
2013-03-13 14:12:00,63.5,30.7,30.35,NW,315,5.0,18.0,29,0.00,,,0.00,meteohub,2013-03-13 19:12:00,
2013-03-13 14:17:00,64.0,30.2,30.34,NNW,328,9.0,16.0,28,0.00,,,0.00,meteohub,2013-03-13 19:17:00,
2013-03-13 14:22:00,64.6,28.9,30.34,NW,325,8.0,16.0,26,0.00,,,0.00,meteohub,2013-03-13 19:22:00,
2013-03-13 14:27:00,64.8,28.0,30.34,West,278,12.0,14.0,25,0.00,,,0.00,meteohub,2013-03-13 19:27:00,
2013-03-13 14:32:00,64.8,26.1,30.34,NW,311,7.0,17.0,23,0.00,,,0.00,meteohub,2013-03-13 19:32:00,
2013-03-13 14:37:00,65.1,28.4,30.34,NNW,342,15.0,18.0,25,0.00,,,0.00,meteohub,2013-03-13 19:37:00,
2013-03-13 14:42:00,64.9,25.2,30.33,NW,323,13.0,18.0,22,0.00,,,0.00,meteohub,2013-03-13 19:42:00,
2013-03-13 14:47:00,64.9,27.3,30.33,NNW,335,10.0,19.0,24,0.00,,,0.00,meteohub,2013-03-13 19:47:00,
2013-03-13 14:52:00,65.1,25.3,30.33,NNW,332,7.0,21.0,22,0.00,,,0.00,meteohub,2013-03-13 19:52:00,
2013-03-13 14:57:00,65.5,27.7,30.33,NNW,341,15.0,21.0,24,0.00,,,0.00,meteohub,2013-03-13 19:57:00,
2013-03-13 15:02:00,65.1,25.3,30.33,NW,315,7.0,21.0,22,0.00,,,0.00,meteohub,2013-03-13 20:02:00,
2013-03-13 15:07:00,65.7,26.8,30.32,NNW,339,6.0,20.0,23,0.00,,,0.00,meteohub,2013-03-13 20:07:00,
2013-03-13 15:12:00,66.0,27.1,30.32,NW,322,6.0,20.0,23,0.00,,,0.00,meteohub,2013-03-13 20:12:00,
2013-03-13 15:17:00,66.0,25.0,30.32,North,0,10.0,17.0,21,0.00,,,0.00,meteohub,2013-03-13 20:17:00,
2013-03-13 15:22:00,66.0,27.1,30.32,NNW,329,15.0,19.0,23,0.00,,,0.00,meteohub,2013-03-13 20:22:00,
2013-03-13 15:27:00,66.0,27.1,30.32,North,5,6.0,19.0,23,0.00,,,0.00,meteohub,2013-03-13 20:27:00,
2013-03-13 15:32:00,66.6,27.7,30.32,NNW,338,11.0,19.0,23,0.00,,,0.00,meteohub,2013-03-13 20:32:00,
2013-03-13 15:37:00,66.4,24.1,30.32,NW,311,7.0,19.0,20,0.00,,,0.00,meteohub,2013-03-13 20:37:00,
2013-03-13 15:42:00,65.7,23.5,30.32,NW,309,7.0,23.0,20,0.00,,,0.00,meteohub,2013-03-13 20:42:00,
2013-03-13 15:47:00,66.0,25.0,30.32,NW,310,9.0,23.0,21,0.00,,,0.00,meteohub,2013-03-13 20:47:00,
2013-03-13 15:52:00,66.0,23.7,30.32,NNW,327,10.0,23.0,20,0.00,,,0.00,meteohub,2013-03-13 20:52:00,
2013-03-13 15:57:00,66.0,26.1,30.32,NNW,334,10.0,21.0,22,0.00,,,0.00,meteohub,2013-03-13 20:57:00,
2013-03-13 16:02:00,66.4,26.4,30.32,NW,306,8.0,21.0,22,0.00,,,0.00,meteohub,2013-03-13 21:02:00,
2013-03-13 16:07:00,66.4,26.4,30.32,NW,316,10.0,21.0,22,0.00,,,0.00,meteohub,2013-03-13 21:07:00,
2013-03-13 16:12:00,65.8,28.0,30.32,WNW,303,10.0,16.0,24,0.00,,,0.00,meteohub,2013-03-13 21:12:00,
2013-03-13 16:17:00,66.0,27.1,30.31,NW,313,12.0,16.0,23,0.00,,,0.00,meteohub,2013-03-13 21:17:00,
2013-03-13 16:22:00,66.2,27.3,30.31,NNW,338,13.0,16.0,23,0.00,,,0.00,meteohub,2013-03-13 21:22:00,
2013-03-13 16:27:00,65.8,25.9,30.31,WNW,296,14.0,16.0,22,0.00,,,0.00,meteohub,2013-03-13 21:27:00,
2013-03-13 16:32:00,66.0,27.1,30.32,NNW,331,11.0,17.0,23,0.00,,,0.00,meteohub,2013-03-13 21:32:00,
2013-03-13 16:37:00,65.8,27.0,30.31,North,350,7.0,17.0,23,0.00,,,0.00,meteohub,2013-03-13 21:37:00,
2013-03-13 16:42:00,65.8,27.0,30.31,NW,325,8.0,17.0,23,0.00,,,0.00,meteohub,2013-03-13 21:42:00,
2013-03-13 16:47:00,66.0,27.1,30.31,NW,310,15.0,18.0,23,0.00,,,0.00,meteohub,2013-03-13 21:47:00,
2013-03-13 16:53:00,66.0,27.1,30.31,WNW,294,8.0,20.0,23,0.00,,,0.00,meteohub,2013-03-13 21:53:00,
2013-03-13 16:58:00,66.0,27.1,30.31,NW,324,10.0,20.0,23,0.00,,,0.00,meteohub,2013-03-13 21:58:00,
2013-03-13 17:03:00,66.0,28.2,30.31,NW,324,11.0,20.0,24,0.00,,,0.00,meteohub,2013-03-13 22:03:00,
2013-03-13 17:08:00,66.0,25.0,30.31,NW,311,20.0,20.0,21,0.00,,,0.00,meteohub,2013-03-13 22:08:00,
2013-03-13 17:13:00,65.7,24.6,30.31,NW,323,15.0,21.0,21,0.00,,,0.00,meteohub,2013-03-13 22:13:00,
2013-03-13 17:18:00,65.5,24.4,30.31,NNW,348,11.0,21.0,21,0.00,,,0.00,meteohub,2013-03-13 22:18:00,
2013-03-13 17:23:00,65.5,20.8,30.31,NW,316,11.0,21.0,18,0.00,,,0.00,meteohub,2013-03-13 22:23:00,
2013-03-13 17:28:00,65.3,21.9,30.31,NW,320,10.0,21.0,19,0.00,,,0.00,meteohub,2013-03-13 22:28:00,
2013-03-13 17:33:00,65.3,23.2,30.31,WNW,300,15.0,21.0,20,0.00,,,0.00,meteohub,2013-03-13 22:33:00,
2013-03-13 17:38:00,65.5,25.7,30.31,NW,319,11.0,23.0,22,0.00,,,0.00,meteohub,2013-03-13 22:38:00,
2013-03-13 17:43:00,65.3,23.2,30.31,NNW,331,14.0,23.0,20,0.00,,,0.00,meteohub,2013-03-13 22:43:00,
2013-03-13 17:48:00,65.1,24.3,30.31,NW,320,7.0,20.0,21,0.00,,,0.00,meteohub,2013-03-13 22:48:00,
2013-03-13 17:53:00,64.9,26.2,30.31,NW,325,8.0,17.0,23,0.00,,,0.00,meteohub,2013-03-13 22:53:00,
2013-03-13 17:58:00,64.8,27.1,30.31,NW,316,11.0,17.0,24,0.00,,,0.00,meteohub,2013-03-13 22:58:00,
2013-03-13 18:03:00,64.8,25.0,30.32,NW,312,12.0,17.0,22,0.00,,,0.00,meteohub,2013-03-13 23:03:00,
2013-03-13 18:08:00,64.4,24.8,30.32,NNW,336,14.0,19.0,22,0.00,,,0.00,meteohub,2013-03-13 23:08:00,
2013-03-13 18:13:00,64.2,26.6,30.32,NW,314,6.0,19.0,24,0.00,,,0.00,meteohub,2013-03-13 23:13:00,
2013-03-13 18:18:00,64.2,24.6,30.32,NW,322,12.0,19.0,22,0.00,,,0.00,meteohub,2013-03-13 23:18:00,
2013-03-13 18:23:00,64.0,25.5,30.32,NW,312,12.0,19.0,23,0.00,,,0.00,meteohub,2013-03-13 23:23:00,
2013-03-13 18:28:00,63.9,25.3,30.32,NW,325,13.0,17.0,23,0.00,,,0.00,meteohub,2013-03-13 23:28:00,
2013-03-13 18:33:00,63.5,27.0,30.32,NW,319,11.0,17.0,25,0.00,,,0.00,meteohub,2013-03-13 23:33:00,
2013-03-13 18:38:00,63.3,27.0,30.32,NW,306,11.0,17.0,25,0.00,,,0.00,meteohub,2013-03-13 23:38:00,
2013-03-13 18:43:00,63.1,27.7,30.32,WNW,302,5.0,16.0,26,0.00,,,0.00,meteohub,2013-03-13 23:43:00,
2013-03-13 18:48:00,63.0,26.6,30.32,WNW,303,9.0,14.0,25,0.00,,,0.00,meteohub,2013-03-13 23:48:00,
2013-03-13 18:53:00,62.8,27.3,30.33,NW,317,7.0,16.0,26,0.00,,,0.00,meteohub,2013-03-13 23:53:00,
2013-03-13 18:58:00,62.2,27.9,30.33,NW,313,6.0,16.0,27,0.00,,,0.00,meteohub,2013-03-13 23:58:00,
2013-03-13 19:03:00,61.9,28.4,30.33,WNW,302,5.0,16.0,28,0.00,,,0.00,meteohub,2013-03-14 00:03:00,
2013-03-13 19:09:00,61.7,28.2,30.34,NW,309,5.0,13.0,28,0.00,,,0.00,meteohub,2013-03-14 00:09:00,
2013-03-13 19:14:00,61.3,27.9,30.34,NW,309,3.0,10.0,28,0.00,,,0.00,meteohub,2013-03-14 00:14:00,
2013-03-13 19:19:00,61.2,27.0,30.34,WNW,299,4.0,10.0,27,0.00,,,0.00,meteohub,2013-03-14 00:19:00,
2013-03-13 19:24:00,61.2,27.0,30.34,NW,306,2.0,10.0,27,0.00,,,0.00,meteohub,2013-03-14 00:24:00,
2013-03-13 19:29:00,60.6,27.3,30.34,NW,311,4.0,7.0,28,0.00,,,0.00,meteohub,2013-03-14 00:29:00,
2013-03-13 19:34:00,60.4,28.0,30.34,NW,306,4.0,7.0,29,0.00,,,0.00,meteohub,2013-03-14 00:34:00,
2013-03-13 19:39:00,59.9,28.4,30.34,NW,313,4.0,7.0,30,0.00,,,0.00,meteohub,2013-03-14 00:39:00,
2013-03-13 19:44:00,59.5,28.9,30.34,NW,313,3.0,9.0,31,0.00,,,0.00,meteohub,2013-03-14 00:44:00,
2013-03-13 19:49:00,59.2,29.3,30.35,NW,313,5.0,9.0,32,0.00,,,0.00,meteohub,2013-03-14 00:49:00,
2013-03-13 19:54:00,58.8,28.9,30.35,NW,311,4.0,7.0,32,0.00,,,0.00,meteohub,2013-03-14 00:54:00,
2013-03-13 19:59:00,58.6,29.7,30.35,NW,316,6.0,6.0,33,0.00,,,0.00,meteohub,2013-03-14 00:59:00,
2013-03-13 20:04:00,58.5,29.5,30.34,NW,315,4.0,6.0,33,0.00,,,0.00,meteohub,2013-03-14 01:04:00,
2013-03-13 20:09:00,58.1,29.8,30.35,NW,317,5.0,6.0,34,0.00,,,0.00,meteohub,2013-03-14 01:09:00,
2013-03-13 20:14:00,57.9,29.7,30.35,NNW,327,4.0,6.0,34,0.00,,,0.00,meteohub,2013-03-14 01:14:00,
2013-03-13 20:19:00,57.9,29.7,30.35,NW,320,5.0,7.0,34,0.00,,,0.00,meteohub,2013-03-14 01:19:00,
2013-03-13 20:24:00,57.9,28.9,30.35,NNW,329,2.0,7.0,33,0.00,,,0.00,meteohub,2013-03-14 01:24:00,
2013-03-13 20:29:00,57.7,28.8,30.35,NNW,332,4.0,8.0,33,0.00,,,0.00,meteohub,2013-03-14 01:29:00,
2013-03-13 20:34:00,57.7,28.8,30.35,NNW,336,3.0,8.0,33,0.00,,,0.00,meteohub,2013-03-14 01:34:00,
2013-03-13 20:39:00,57.6,27.9,30.35,NNW,336,3.0,8.0,32,0.00,,,0.00,meteohub,2013-03-14 01:39:00,
2013-03-13 20:44:00,57.6,28.6,30.35,NNW,336,2.0,7.0,33,0.00,,,0.00,meteohub,2013-03-14 01:44:00,
2013-03-13 20:49:00,57.4,27.7,30.35,NNW,342,4.0,6.0,32,0.00,,,0.00,meteohub,2013-03-14 01:49:00,
2013-03-13 20:54:00,57.4,27.7,30.35,NNW,340,4.0,6.0,32,0.00,,,0.00,meteohub,2013-03-14 01:54:00,
2013-03-13 20:59:00,57.4,27.7,30.35,NNW,340,4.0,6.0,32,0.00,,,0.00,meteohub,2013-03-14 01:59:00,
2013-03-13 21:04:00,57.0,28.2,30.36,NNW,340,3.0,6.0,33,0.00,,,0.00,meteohub,2013-03-14 02:04:00,
2013-03-13 21:09:00,56.8,28.0,30.36,NNW,343,2.0,5.0,33,0.00,,,0.00,meteohub,2013-03-14 02:09:00,
2013-03-13 21:14:00,56.7,27.9,30.36,NNW,344,1.0,5.0,33,0.00,,,0.00,meteohub,2013-03-14 02:14:00,
2013-03-13 21:19:00,56.3,28.2,30.36,NNW,344,0.0,6.0,34,0.00,,,0.00,meteohub,2013-03-14 02:19:00,
2013-03-13 21:24:00,56.1,28.8,30.36,NNW,344,1.0,6.0,35,0.00,,,0.00,meteohub,2013-03-14 02:24:00,
2013-03-13 21:29:00,55.9,28.8,30.37,NNW,344,1.0,4.0,35,0.00,,,0.00,meteohub,2013-03-14 02:29:00,
2013-03-13 21:34:00,55.8,29.1,30.37,NNW,344,3.0,4.0,36,0.00,,,0.00,meteohub,2013-03-14 02:34:00,
2013-03-13 21:39:00,55.6,28.4,30.37,NNW,344,1.0,4.0,35,0.00,,,0.00,meteohub,2013-03-14 02:39:00,
2013-03-13 21:44:00,55.8,28.6,30.37,North,351,0.0,5.0,35,0.00,,,0.00,meteohub,2013-03-14 02:44:00,
2013-03-13 21:49:00,55.8,28.6,30.37,North,0,2.0,5.0,35,0.00,,,0.00,meteohub,2013-03-14 02:49:00,
2013-03-13 21:54:00,55.8,28.6,30.38,North,0,1.0,5.0,35,0.00,,,0.00,meteohub,2013-03-14 02:54:00,
2013-03-13 21:59:00,55.9,28.8,30.38,North,0,2.0,6.0,35,0.00,,,0.00,meteohub,2013-03-14 02:59:00,
2013-03-13 22:04:00,55.8,28.6,30.38,North,5,0.0,6.0,35,0.00,,,0.00,meteohub,2013-03-14 03:04:00,
2013-03-13 22:09:00,55.8,27.9,30.38,North,5,1.0,5.0,34,0.00,,,0.00,meteohub,2013-03-14 03:09:00,
2013-03-13 22:14:00,55.6,27.7,30.38,North,5,1.0,6.0,34,0.00,,,0.00,meteohub,2013-03-14 03:14:00,
2013-03-13 22:19:00,55.6,27.7,30.38,North,5,2.0,6.0,34,0.00,,,0.00,meteohub,2013-03-14 03:19:00,
2013-03-13 22:24:00,55.4,28.2,30.38,North,5,0.0,4.0,35,0.00,,,0.00,meteohub,2013-03-14 03:24:00,
2013-03-13 22:29:00,55.2,28.0,30.39,North,5,0.0,3.0,35,0.00,,,0.00,meteohub,2013-03-14 03:29:00,
2013-03-13 22:34:00,55.0,28.6,30.39,North,5,3.0,3.0,36,0.00,,,0.00,meteohub,2013-03-14 03:34:00,
2013-03-13 22:39:00,54.9,28.4,30.39,North,5,0.0,2.0,36,0.00,,,0.00,meteohub,2013-03-14 03:39:00,
2013-03-13 22:44:00,54.9,29.1,30.39,North,5,0.0,3.0,37,0.00,,,0.00,meteohub,2013-03-14 03:44:00,
2013-03-13 22:49:00,54.5,28.8,30.39,North,5,0.0,3.0,37,0.00,,,0.00,meteohub,2013-03-14 03:49:00,
2013-03-13 22:55:00,54.1,29.1,30.39,North,5,0.0,2.0,38,0.00,,,0.00,meteohub,2013-03-14 03:55:00,
2013-03-13 23:00:00,54.0,28.2,30.39,North,5,0.0,3.0,37,0.00,,,0.00,meteohub,2013-03-14 04:00:00,
2013-03-13 23:01:00,54.0,27.7,30.39,North,5,1.0,3.0,36,0.00,,,0.00,meteohub,2013-03-14 04:01:00,
2013-03-13 23:06:00,54.0,26.2,30.39,North,5,1.0,3.0,34,0.00,,,0.00,meteohub,2013-03-14 04:06:00,
2013-03-13 23:11:00,54.0,26.2,30.39,North,5,0.0,3.0,34,0.00,,,0.00,meteohub,2013-03-14 04:11:00,
2013-03-13 23:16:00,53.8,26.1,30.39,North,5,2.0,4.0,34,0.00,,,0.00,meteohub,2013-03-14 04:16:00,
2013-03-13 23:22:00,53.8,25.3,30.39,North,5,1.0,4.0,33,0.00,,,0.00,meteohub,2013-03-14 04:22:00,
2013-03-13 23:27:00,53.8,25.3,30.39,NNE,17,3.0,5.0,33,0.00,,,0.00,meteohub,2013-03-14 04:27:00,
2013-03-13 23:32:00,53.8,24.6,30.39,NNE,19,2.0,6.0,32,0.00,,,0.00,meteohub,2013-03-14 04:32:00,
2013-03-13 23:37:00,53.8,24.6,30.39,NNE,21,2.0,6.0,32,0.00,,,0.00,meteohub,2013-03-14 04:37:00,
2013-03-13 23:42:00,53.8,24.6,30.38,NNE,21,1.0,5.0,32,0.00,,,0.00,meteohub,2013-03-14 04:42:00,
2013-03-13 23:47:00,53.6,23.7,30.39,NNE,20,2.0,5.0,31,0.00,,,0.00,meteohub,2013-03-14 04:47:00,
2013-03-13 23:52:00,53.6,23.7,30.38,NNE,28,4.0,6.0,31,0.00,,,0.00,meteohub,2013-03-14 04:52:00,
2013-03-13 23:57:00,53.6,22.8,30.38,NNE,28,2.0,6.0,30,0.00,,,0.00,meteohub,2013-03-14 04:57:00,